Regional Weather Roundup
Issued by NWS

Home | Current Version | Previous Version | Text Only | Print | Product List | Glossary Off
Versions: 1 2 3 4 5 6 7 8 9 10 11 12 13 14 15 16 17 18 19 20 21 22 23 24 25 26 27 28 29 30 31 32 33 34 35 36 37 38 39 40 41 42 43 44 45 46 47 48 49 50

000
ASUS43 KMPX 231510
RWRMN
WEATHER ROUNDUP FOR MINNESOTA
NATIONAL WEATHER SERVICE TWIN CITIES/CHANHASSEN MN
900 AM CST TUE JAN 23 2018


NOTE: "FAIR" INDICATES FEW OR NO CLOUDS BELOW 12,000 FEET WITH NO
SIGNIFICANT WEATHER AND/OR OBSTRUCTIONS TO VISIBILITY. N/A MEANS
CURRENT SKY AND/OR WEATHER CONDITIONS ARE NOT AVAILABLE.

MNZ060>063-068>070-231600-
   Twin Cities Metro

CITY           SKY/WX    TMP DP  RH WIND       PRES   REMARKS
TWIN CITIES    CLOUDY    18  13  80 NW14      30.01R WCI   4
ST PAUL        CLOUDY    19  13  77 N10       30.02R WCI   7
CRYSTAL        PTSUNNY   16   8  71 N10       30.01R WCI   4
BLAINE         PTSUNNY   18  12  79 NW12      30.00R WCI   5
LAKEVILLE      CLOUDY    18  16  93 N8G16     30.00R WCI   7
EDEN PRAIRIE   FAIR      18  11  74 N10       30.00R WCI   6
SOUTH ST PAUL  CLOUDY    19  14  78 N10       30.00R WCI   8
LAKE ELMO      CLOUDY    19  14  79 NW9       30.00R WCI   9
$$
MNZ001>005-007-008-013>017-022>024-027-028-231600-
   Northwest Minnesota

CITY           SKY/WX    TMP DP  RH WIND       PRES   REMARKS
BEMIDJI        FAIR      13  10  85 E5        30.05R WCI   5
HALLOCK        CLOUDY    18  16  93 SE8       30.08R WCI   7
ROSEAU         CLOUDY    16  12  86 E3        30.08R
WARROAD        CLOUDY    14   9  79 E6        30.08R WCI   5
THIEF RVR FALL CLOUDY    17  14  88 E3        30.08R
CROOKSTON      CLOUDY    18  16  93 SW3       30.10R
FOSSTON        CLOUDY    18  14  86 CALM      30.06R
DETROIT LAKES  CLOUDY    19  18  93 CALM      30.06R
MOORHEAD       CLOUDY    19  16  86 CALM      30.10R
PARK RAPIDS    CLOUDY    18  12  77 NE5       30.02S WCI  11
MAHNOMEN       CLOUDY    18  14  83 E3        30.06R
$$
MNZ006-009>011-018-025>026-231600-
   North Central Minnesota

CITY           SKY/WX    TMP DP  RH WIND       PRES   REMARKS
BAUDETTE       FAIR       6   2  83 NE3       30.07R
FLAG ISLAND    CLOUDY    10   3  72 E3        30.08S
INTL FALLS     FAIR       2  -3  80 CALM      30.06S
WASKISH        FAIR       7   3  85 CALM      30.07R
BIG FORK       FAIR       1  -2  85 CALM      30.03F
LONGVILLE      FAIR       9   7  92 N3        30.04S
GRAND RAPIDS   FAIR       5   1  83 N7        30.05S WCI  -7
CRANE LAKE     FAIR      -8  -9  92 CALM      30.09S
ORR            FAIR      -4  -9  77 CALM      30.01S
COOK           CLOUDY    -2  -6  84 CALM      30.04R
WALKER         FAIR      10   8  89 CALM      30.04S
$$
MNZ012-019>021-037-231600-
   Northeast Minnesota

CITY           SKY/WX    TMP DP  RH WIND       PRES   REMARKS
DULUTH         FAIR       4  -2  76 N9        29.97R WCI -10
HIBBING        FAIR       1  -4  79 N9        30.02R WCI -14
EVELETH        FAIR       2  -6  69 N3        30.01S
DULUTH HARBOR  CLOUDY    12   9  85 N9        30.04R WCI   0
TWO HARBORS    FAIR      14   7  73 NW5       29.96S WCI   6
SILVER BAY     FAIR       9   1  72 VRB3      29.96S
GRAND MARAIS     N/A     18   5  57 N14G28    29.95R WCI   4
G MARAIS ARPRT CLOUDY     7   0  72 N13       29.91R WCI  -9
$$
MNZ029>031-032-039>041-046>048-054>057-064-231600-
   West Central Minnesota

CITY           SKY/WX    TMP DP  RH WIND       PRES   REMARKS
FERGUS FALLS   CLOUDY    19  16  86 CALM      30.07S
WHEATON        CLOUDY    21  16  79 N3        30.11R
MORRIS         CLOUDY    21  16  79 N5        30.07R WCI  15
ALEXANDRIA     CLOUDY    19  14  81 N8        30.05R WCI   9
ELBOW LAKE     CLOUDY    19  15  84 W3        30.07R
WADENA         CLOUDY    18  12  79 NE3       30.04S
GLENWOOD       FAIR      18  16  93 N5        30.05S WCI  11
APPLETON       CLOUDY    23  18  80 N7        30.08R WCI  15
BENSON         MOCLDY    21  16  79 NE6       30.08S WCI  14
ORTONVILLE     CLOUDY    21  16  79 NW5       30.08R WCI  15
MADISON        CLOUDY    25  19  80 NW7       30.09R WCI  17
WILLMAR        FAIR      19  16  86 NW7       30.08R WCI  10
$$
MNZ033>034-036-042>043-049>051-058-059-231600-
   Central Minnesota

CITY           SKY/WX    TMP DP  RH WIND       PRES   REMARKS
ST CLOUD       FAIR      17  13  84 N13       30.03R WCI   4
SAUK CENTRE      N/A     17  13  83 N6        30.05S WCI   9
PAYNESVILLE    FAIR      18  16  89 N7        30.06R WCI   9
AITKIN         FAIR       9   5  85 N5        30.02R WCI   0
PINE RIVER     FAIR      10   9  92 NW3       30.07S
BRAINERD       FAIR      13   8  81 N10       30.04R WCI   0
STAPLES        FAIR      14  10  85 N3        30.05R
LONG PRAIRIE   FAIR      18  12  79 NW7       30.04S WCI   8
LITTLE FALLS   FAIR      16  10  79 N3        30.05S
LITCHFIELD     FAIR      19  18  93 N14       30.04R WCI   6
BUFFALO        FAIR      17  12  79 NW5       30.03R WCI  10
MAPLE LAKE     FAIR      19  15  84 MISG      30.04R
HUTCHINSON     FAIR      20  15  81 NW13      30.04R WCI   7
$$
MNZ037-044-045-052-053-231600-
   East Central Minnesota

CITY           SKY/WX    TMP DP  RH WIND       PRES   REMARKS
PRINCETON      FAIR      16  10  79 NW10      30.02R WCI   3
MORA           FAIR      12   7  79 N6        30.03R WCI   3
CAMBRIDGE        N/A     16   7  67 N10G16    30.02S WCI   3
RUSH CITY      CLOUDY    14   8  76 N7        30.01S WCI   4
MOOSE LAKE     FAIR       9   1  72 N7        30.01R WCI  -3
HINCKLEY       FAIR      12   5  73 N5        30.01R WCI   4
CLOQUET        FAIR       5  -2  72 NW12      29.99R WCI -11
MCGREGOR       FAIR       9   5  85 NW10      30.02S WCI  -6
$$
MNZ071>073-080-081-089-090-097-098-231600-
   Southwest Minnesota

CITY           SKY/WX    TMP DP  RH WIND       PRES   REMARKS
MONTEVIDEO     MOCLDY    23  18  80 N7        30.08R WCI  15
GRANITE FALLS  CLOUDY    24  19  81 NW12      30.09R WCI  13
CANBY          CLOUDY    23  20  88 W9        30.10R WCI  13
MARSHALL       CLOUDY    21  18  88 N14       30.08R WCI   8
REDWOOD FALLS  CLEAR     21  16  81 NW10      30.07R WCI  10
OLIVIA         CLEAR     21  18  86 NW8       30.06R WCI  12
PIPESTONE      CLOUDY    19  18  93 N6        30.06R WCI  11
WINDOM         CLOUDY    21   7  53 NW14      30.04R WCI   8
WORTHINGTON    CLOUDY    20  18  92 N17       30.06R WCI   5
JACKSON        CLOUDY    21  18  86 N15G21    30.04R WCI   8
TRACY          CLOUDY    22  19  89 N13       30.06R WCI  10
SLAYTON        CLOUDY    20  18  91 NW13      30.05R WCI   7
$$
MNZ065>067-074>077-082>085-091>093-231600-
   South Central Minnesota

CITY           SKY/WX    TMP DP  RH WIND       PRES   REMARKS
MANKATO        FAIR      17  13  84 NW10      30.03R WCI   5
NEW ULM        SUNNY     18  12  79 NW12      30.05R WCI   5
ST JAMES       SUNNY     19  16  86 NW13      30.06R WCI   7
FAIRMONT       PTSUNNY   21  18  88 NW18      30.04R WCI   6
FARIBAULT      CLOUDY    19  16  86 N13       30.00R WCI   7
OWATONNA       CLOUDY    19  16  86 N20       29.99R WCI   4
WASECA         CLOUDY    19  16  86 NW16      30.02R WCI   5
ALBERT LEA     CLOUDY    18  14  86 NW15G21   29.98R WCI   3
$$
MNZ078>079-086>088-094>096-231600-
   Southeast Minnesota

CITY           SKY/WX    TMP DP  RH WIND       PRES   REMARKS
ROCHESTER      MIX PCPN  17  15  92 N20G33    29.93R FOG     WCI   1
RED WING       CLOUDY    19  12  73 NW8       29.97R WCI   9
STANTON        CLOUDY    20  15  81 NW12      29.98R WCI   8
DODGE CENTER   CLOUDY    18  14  86 N14G20    29.95R WCI   4
WINONA         CLOUDY    23  18  80 NW13G20   29.93R WCI  11
PRESTON        CLOUDY    18  15  89 N12       29.92R WCI   5
$$
ABBREVIATIONS USED IN REMARKS
   TC - TEMPERATURES IN CELSIUS
  WCI - WIND CHILL INDEX
   HX - HEAT INDEX
  VSB - VISIBILITY
$$




USA.gov is the U.S. government's official web portal to all federal, state and local government web resources and services.